Tiempo atmosférico en la estación meteorológica de Cabo Vilan, A Coruña (50 m.)



Fecha
DESCASC
Temp. máxima en grados centígrados (hora)
DESCASC
Temp. mínima en grados centígrados (hora)
DESCASC
Temp. media en grados centígrados
DESCASC
Racha de viento máxima en m/sg (hora)
DESCASC
Velocidad máxima media en intervalos de 10 minutos(hora)
DESCASC
Precipitaciones diarias en mm
DESCASC
Precipitaciones de 00:00 a 06:00 en mm
DESCASC
Precipitaciones de 06:00 a 12:00 en mm
DESCASC
Precipitaciones de 12:00 a 18:00 en mm
DESCASC
Precipitaciones de 18:00 a 24:00 en mm
DESCASC
21-02-2019 17.1 (12:20) 10.3 (00:00) 13.7 18.06 (13:50) 11.67 (14:30) -- -- -- -- --
20-02-2019 14 (14:20) 7.1 (00:20) 10.5 13.33 (23:59) 10 (13:20) -- -- -- -- --
19-02-2019 12.7 (16:30) 5.6 (08:40) 9.1 5.83 (23:40) 4.17 (00:30) -- -- -- -- --
18-02-2019 13.1 (14:40) 7.4 (06:30) 10.3 9.72 (19:10) 7.22 (19:00) -- -- -- -- --
17-02-2019 12.7 (08:10) 8.2 (00:00) 10.4 14.72 (04:10) 10.28 (05:00) -- -- -- -- --
16-02-2019 18.7 (14:50) 10 (00:00) 14.4 11.39 (20:20) 9.17 (18:00) -- -- -- -- --
15-02-2019 17.5 (14:30) 11.2 (00:00) 14.3 15.56 (10:20) 10.83 (11:10) -- -- -- -- --
14-02-2019 19 (15:10) 9.3 (00:00) 14.2 14.44 (13:30) 10 (13:20) -- -- -- -- --
13-02-2019 18.1 (14:30) 7.5 (00:00) 12.8 6.94 (13:10) 5.28 (10:30) -- -- -- -- --
12-02-2019 14.5 (14:00) 6.8 (00:00) 10.7 6.67 (00:50) 5.28 (00:20) -- -- -- -- --
11-02-2019 12.3 (12:30) 6.2 (00:00) 9.3 11.67 (17:30) 9.72 (17:20) -- -- -- -- --
10-02-2019 12.8 (00:10) 8.5 (00:00) 10.7 26.39 (02:10) 18.89 (02:00) -- -- -- -- --
09-02-2019 12.9 (13:00) 11.3 (00:00) 12.1 24.44 (17:30) 17.22 (23:10) -- -- -- -- --
08-02-2019 12.5 (16:50) 10.1 (00:00) 11.3 21.11 (13:40) 14.17 (13:40) -- -- -- -- --
07-02-2019 13.2 (14:20) 8 (00:00) 10.6 10.56 (02:50) 8.06 (02:50) -- -- -- -- --
06-02-2019 12.9 (15:30) 9.7 (00:00) 11.3 17.22 (09:50) 11.67 (16:30) -- -- -- -- --
05-02-2019 15.3 (13:40) 11 (00:00) 13.2 11.11 (09:20) 8.33 (14:00) 0 0 0 0 0
04-02-2019 11.8 (21:30) 8.4 (00:00) 10.1 13.33 (07:40) 9.44 (09:50) 2.7 0.2 2 0.5 0
03-02-2019 13.1 (15:20) 4.4 (00:00) 8.8 10.56 (23:59) 8.61 (00:10) 0 0 0 0 0
02-02-2019 10.9 (14:00) 6.3 (00:00) 8.6 23.06 (01:40) 15.56 (00:20) 1.1 0.7 0 0 0.4
01-02-2019 -- (--) -- (--) -- -- (--) -- (--) -- 2.1 -- 3.1 2.2
31-01-2019 12.8 (11:30) 8.2 (00:00) 10.5 23.61 (21:40) 14.17 (23:10) -- -- -- -- --
30-01-2019 12.6 (19:20) 8.2 (00:00) 10.4 17.22 (15:30) 13.06 (15:30) -- -- -- -- --
29-01-2019 11.9 (11:00) 8.2 (00:00) 10 20 (12:00) 14.17 (09:40) -- -- -- -- --
28-01-2019 11.9 (15:40) 10.1 (00:00) 11 12.78 (08:00) 7.78 (00:10) -- -- -- -- --
27-01-2019 12.5 (14:10) 8.9 (00:00) 10.7 14.17 (07:50) 10 (12:10) -- -- -- -- --
26-01-2019 12.6 (13:10) 8.5 (00:00) 10.6 14.44 (22:30) 8.33 (22:10) -- -- -- -- --
25-01-2019 12.6 (14:20) 9.2 (00:00) 10.9 16.94 (01:40) 11.39 (12:40) -- -- -- -- --
24-01-2019 12.2 (11:50) 10.7 (00:00) 11.4 15.56 (07:10) 12.22 (07:10) -- -- -- -- --

Gráficas

Temp. máximas Temp. mínimas Temp. medias Precipitaciones Rachas de viento máximas Velocidades máximas media en intervalos de 10 minutos

Datos horarios

Fecha y hora oficial Temperatura (ºC) Velocidad del viento (km/h) Dirección del viento Racha (km/h) Dirección de racha Precipitación (mm) Presión (hPa) Tendencia (hPa) Humedad (%)
2019-02-22 23:00:00 14.3 31 Sur 45 Sur 0 -- -- --
2019-02-22 22:00:00 14.3 27 Sur 42 Sur 0 -- -- --
2019-02-22 21:00:00 14.4 26 Sur 42 Sur 0 -- -- --
2019-02-22 20:00:00 14.5 24 Sur 41 Sur 0 -- -- --
2019-02-22 19:00:00 14.9 27 Sur 40 Sur 0 -- -- --
2019-02-22 18:00:00 16.7 21 Sur 45 Sur 0 -- -- --
2019-02-22 17:00:00 18.4 31 Sur 44 Sur 0 -- -- --
2019-02-22 16:00:00 19.3 32 Sur 54 Sur 0 -- -- --
2019-02-22 15:00:00 19.7 37 Sur 54 Sur 0 -- -- --
2019-02-22 14:00:00 19 35 Sur 55 Sur 0 -- -- --
2019-02-22 13:00:00 19.4 28 Sur 48 Sur 0 -- -- --
2019-02-22 12:00:00 18.7 18 Sur 28 Sur 0 -- -- --
2019-02-22 11:00:00 16.9 12 Sur 33 Sur 0 -- -- --
2019-02-22 10:00:00 15.1 15 Sur 35 Sur 0 -- -- --
2019-02-22 09:00:00 13.9 23 Sur 38 Sur 0 -- -- --
2019-02-22 08:00:00 13.3 23 Sur 35 Sur 0 -- -- --
2019-02-22 07:00:00 12.7 18 Sur 35 Sur 0 -- -- --
2019-02-22 06:00:00 13.3 28 Sur 45 Sur 0 -- -- --
2019-02-22 05:00:00 13.3 30 Sur 43 Sur 0 -- -- --
2019-02-22 04:00:00 13.5 28 Sur 45 Sur 0 -- -- --
2019-02-22 03:00:00 13.6 31 Sur 45 Sur 0 -- -- --
2019-02-22 02:00:00 13.6 32 Sur 50 Sur 0 -- -- --
2019-02-22 01:00:00 13.5 32 Sur 53 Sur 0 -- -- --
2019-02-22 00:00:00 13.7 33 Sur 47 Sur 0 -- -- --
2019-02-21 23:00:00 13.4 27 Sur 41 Sur 0 -- -- --
2019-02-21 22:00:00 13.5 28 Sur 45 Sudoeste 0 -- -- --
2019-02-21 21:00:00 13.2 28 Sur 43 Sur 0 -- -- --
2019-02-21 20:00:00 12.9 26 Sur 40 Sur 0 -- -- --
2019-02-21 19:00:00 13.2 28 Sur 46 Sur 0 -- -- --
2019-02-21 18:00:00 14 31 Sur 48 Sur 0 -- -- --
2019-02-21 17:00:00 14.7 34 Sur 48 Sur 0 -- -- --
2019-02-21 16:00:00 15.1 34 Sur 51 Sur 0 -- -- --
2019-02-21 15:00:00 15.7 39 Sur 61 Sur 0 -- -- --
2019-02-21 14:00:00 16.7 42 Sur 65 Sur 0 -- -- --
2019-02-21 13:00:00 16.6 39 Sur 62 Sur 0 -- -- --
2019-02-21 12:00:00 16.5 33 Sur 50 Sur 0 -- -- --
2019-02-21 11:00:00 15.6 26 Sur 82 Sur 0 -- -- --
2019-02-21 10:00:00 14.4 22 Sur 34 Sur 0 -- -- --
2019-02-21 09:00:00 12.6 22 Sur 34 Sur 0 -- -- --
2019-02-21 08:00:00 12.3 29 Sur 48 Sur 0 -- -- --
2019-02-21 07:00:00 12.6 24 Sur 45 Sur 0 -- -- --
2019-02-21 06:00:00 12.4 29 Sur 42 Sur 0 -- -- --
2019-02-21 05:00:00 12.1 23 Sur 40 Sur 0 -- -- --
2019-02-21 04:00:00 12 28 Sur 42 Sur 0 -- -- --
2019-02-21 03:00:00 11.8 26 Sur 43 Sur 0 -- -- --
2019-02-21 02:00:00 11.6 28 Sur 42 Sur 0 -- -- --
2019-02-21 01:00:00 11.2 31 Sur 47 Sur 0 -- -- --
2019-02-21 00:00:00 10.3 35 Sur 48 Sur 0 -- -- --
2019-02-20 23:00:00 9.8 27 Sur 39 Sur 0 -- -- --
2019-02-20 22:00:00 9.7 25 Sur 37 Sur 0 -- -- --
2019-02-20 21:00:00 10 28 Sur 39 Sur 0 -- -- --
2019-02-20 20:00:00 9.9 21 Sur 32 Sur 0 -- -- --
2019-02-20 19:00:00 11 24 Sur 37 Sur 0 -- -- --
2019-02-20 18:00:00 12.9 25 Sur 39 Sur 0 -- -- --
2019-02-20 17:00:00 13.6 27 Sur 44 Sur 0 -- -- --
2019-02-20 16:00:00 13.5 29 Sur 41 Sur 0 -- -- --
2019-02-20 15:00:00 13.5 32 Sur 45 Sur 0 -- -- --
2019-02-20 14:00:00 13.2 33 Sur 47 Sur 0 -- -- --
2019-02-20 13:00:00 12.8 30 Sur 42 Sur 0 -- -- --
2019-02-20 12:00:00 12 30 Sur 47 Sur 0 -- -- --
2019-02-20 11:00:00 11.2 28 Sur 44 Sur 0 -- -- --
2019-02-20 10:00:00 9.8 28 Sur 39 Sur 0 -- -- --
2019-02-20 09:00:00 9.2 28 Sur 39 Sur 0 -- -- --
2019-02-20 08:00:00 9.1 24 Sur 35 Sur 0 -- -- --
2019-02-20 07:00:00 8.9 22 Sur 32 Sur 0 -- -- --
2019-02-20 06:00:00 8.8 23 Sur 34 Sur 0 -- -- --
2019-02-20 05:00:00 8.6 22 Sur 31 Sur 0 -- -- --
2019-02-20 04:00:00 8.3 22 Sur 29 Sur 0 -- -- --
2019-02-20 03:00:00 7.8 19 Sur 25 Sur 0 -- -- --
2019-02-20 02:00:00 7.6 19 Sur 28 Sudeste 0 -- -- --
2019-02-20 01:00:00 7.4 17 Sudeste 24 Sudeste 0 -- -- --
2019-02-20 00:00:00 7.4 15 Sudeste 21 Sudeste 0 -- -- --
2019-02-19 23:00:00 7 14 Sudeste 17 Sudeste 0 -- -- --
2019-02-19 22:00:00 6.9 13 Sudeste 15 Sudeste 0 -- -- --
2019-02-19 21:00:00 7.9 7 Sudeste 9 Sudeste 0 -- -- --
2019-02-19 20:00:00 9.1 3 Sudoeste 9 Sudoeste 0 -- -- --
2019-02-19 19:00:00 9.3 6 Sudoeste 10 Oeste 0 -- -- --
2019-02-19 18:00:00 10.9 5 Oeste 13 Oeste 0 -- -- --
2019-02-19 17:00:00 12.7 7 Oeste 13 Oeste 0 -- -- --
2019-02-19 16:00:00 12.3 7 Noroeste 13 Noroeste 0 -- -- --
2019-02-19 15:00:00 12.4 7 Noroeste 15 Norte 0 -- -- --
2019-02-19 14:00:00 12.1 10 Norte 13 Norte 0 -- -- --
2019-02-19 13:00:00 11.6 6 Norte 12 Este 0 -- -- --
2019-02-19 12:00:00 11.9 5 Sudeste 14 Sudeste 0 -- -- --
2019-02-19 11:00:00 10.1 10 Sudeste 14 Sudeste 0 -- -- --
2019-02-19 10:00:00 7.8 12 Sudeste 14 Sudeste 0 -- -- --
2019-02-19 09:00:00 6.2 14 Sudeste 16 Este 0 -- -- --
2019-02-19 08:00:00 6.1 14 Sudeste 17 Este 0 -- -- --
2019-02-19 07:00:00 6.1 12 Sudeste 16 Sudeste 0 -- -- --
2019-02-19 06:00:00 6 11 Este 14 Sudeste 0 -- -- --
2019-02-19 05:00:00 7.3 9 Este 14 Este 0 -- -- --
2019-02-19 04:00:00 6.9 10 Este 12 Este 0 -- -- --
2019-02-19 03:00:00 7.1 7 Este 11 Este 0 -- -- --
2019-02-19 02:00:00 7.5 7 Este 13 Nordeste 0 -- -- --
2019-02-19 01:00:00 8.2 9 Este 20 Nordeste 0 -- -- --
2019-02-19 00:00:00 8.9 12 Norte 22 Nordeste 0 -- -- --
2019-02-18 23:00:00 9 17 Nordeste 23 Norte 0 -- -- --
2019-02-18 22:00:00 9.1 17 Norte 26 Norte 0 -- -- --
2019-02-18 21:00:00 9.2 18 Norte 30 Norte 0 -- -- --
2019-02-18 20:00:00 8.9 19 Norte 35 Noroeste 0.3 -- -- --
2019-02-18 19:00:00 9.7 26 Norte 34 Norte 0 -- -- --
2019-02-18 18:00:00 10.8 17 Norte 24 Norte 0 -- -- --
2019-02-18 17:00:00 11.8 15 Norte 22 Norte 0 -- -- --
2019-02-18 16:00:00 12 14 Norte 22 Norte 0 -- -- --
2019-02-18 15:00:00 11.3 14 Norte 23 Norte 0 -- -- --
2019-02-18 14:00:00 12.9 12 Norte 19 Norte 0 -- -- --
2019-02-18 13:00:00 12 14 Norte 22 Norte 0 -- -- --
2019-02-18 12:00:00 11 16 Norte 25 Norte 0 -- -- --
2019-02-18 11:00:00 10.6 20 Norte 29 Norte 0 -- -- --
2019-02-18 10:00:00 9.4 24 Norte 31 Norte 0 -- -- --
2019-02-18 09:00:00 9.5 19 Norte 29 Norte 0 -- -- --
2019-02-18 08:00:00 8.9 10 Norte 18 Norte 0 -- -- --
2019-02-18 07:00:00 8 0 Calma 8 Este 0 -- -- --
2019-02-18 06:00:00 8 2 Este 10 Sudeste 0 -- -- --
2019-02-18 05:00:00 8.1 4 Este 8 Nordeste 0 -- -- --
2019-02-18 04:00:00 7.9 6 Este 10 Sudeste 0 -- -- --
2019-02-18 03:00:00 7.9 6 Sudeste 12 Sudeste 0 -- -- --
2019-02-18 02:00:00 8.3 12 Sudeste 15 Sudeste 0 -- -- --
2019-02-18 01:00:00 8.5 10 Sur 15 Este 0.1 -- -- --
2019-02-18 00:00:00 8.2 10 Sudeste 21 Sudeste 0.1 -- -- --
2019-02-17 23:00:00 8.3 14 Sudeste 21 Sudeste 0.2 -- -- --
2019-02-17 22:00:00 8.3 15 Sudeste 21 Sudeste 1.3 -- -- --
2019-02-17 21:00:00 8.5 13 Sudeste 20 Sudeste 1.7 -- -- --
2019-02-17 20:00:00 8.7 9 Sudeste 17 Sudeste 1.8 -- -- --
2019-02-17 19:00:00 8.8 14 Sudeste 18 Sudeste 1.2 -- -- --
2019-02-17 18:00:00 9.1 13 Sudeste 17 Sudeste 1.6 -- -- --
2019-02-17 17:00:00 9.6 6 Sudeste 10 Sudeste 1.9 -- -- --
2019-02-17 16:00:00 9.9 6 Sudeste 10 Sudeste 1.8 -- -- --
2019-02-17 15:00:00 10.1 0 Calma 9 Oeste 2.6 -- -- --
2019-02-17 14:00:00 10.2 4 Sudoeste 8 Oeste 1.4 -- -- --
2019-02-17 13:00:00 10.1 5 Oeste 11 Oeste 1.2 -- -- --
2019-02-17 12:00:00 9.9 0 Calma 14 Oeste 3.9 -- -- --
2019-02-17 11:00:00 10.2 9 Oeste 19 Noroeste 2.1 -- -- --
2019-02-17 10:00:00 10.6 11 Noroeste 31 Sur 6.5 -- -- --
2019-02-17 09:00:00 12.6 23 Sur 43 Sur 0 -- -- --
2019-02-17 08:00:00 12.5 31 Sur 44 Sur 0 -- -- --
2019-02-17 07:00:00 12.5 30 Sur 41 Sur 0 -- -- --
2019-02-17 06:00:00 12.6 32 Sur 49 Sur 0 -- -- --
2019-02-17 05:00:00 12.3 37 Sur 53 Sur 0 -- -- --
2019-02-17 04:00:00 12 33 Sur 45 Sur 0 -- -- --
2019-02-17 03:00:00 12.1 33 Sur 46 Sur 0 -- -- --
2019-02-17 02:00:00 12 34 Sur 47 Sudoeste 0 -- -- --
2019-02-17 01:00:00 12 27 Sur 44 Sudeste 0 -- -- --
2019-02-17 00:00:00 11.8 23 Sur 34 Sur 0 -- -- --
2019-02-16 23:00:00 11.8 24 Sur 34 Sur 0 -- -- --
2019-02-16 22:00:00 11.7 24 Sur 32 Sur 0 -- -- --
2019-02-16 21:00:00 11.9 20 Sudoeste 41 Sudoeste 0 -- -- --
2019-02-16 20:00:00 12.6 25 Sudoeste 37 Sudoeste 0 -- -- --
2019-02-16 19:00:00 12.6 21 Sudoeste 41 Sudoeste 0 -- -- --
2019-02-16 18:00:00 14.8 33 Sudoeste 41 Sudoeste 0 -- -- --
2019-02-16 17:00:00 16.9 21 Sudoeste 32 Sudoeste 0 -- -- --
2019-02-16 16:00:00 17.7 20 Sudoeste 32 Sudoeste 0 -- -- --
2019-02-16 15:00:00 18.4 24 Sudoeste 38 Sur 0 -- -- --
2019-02-16 14:00:00 16.8 19 Sudoeste 27 Sudoeste 0 -- -- --
2019-02-16 13:00:00 16.7 10 Sur 14 Sur 0 -- -- --
2019-02-16 12:00:00 16 10 Sudoeste 13 Sudoeste 0 -- -- --
2019-02-16 11:00:00 14.6 6 Sur 14 Sur 0 -- -- --
2019-02-16 10:00:00 13 12 Sur 17 Sur 0 -- -- --
2019-02-16 09:00:00 12.3 8 Sur 19 Sudeste 0 -- -- --
2019-02-16 08:00:00 11 12 Sudeste 17 Sudeste 0 -- -- --
2019-02-16 07:00:00 11.5 7 Sur 10 Sudeste 0 -- -- --
2019-02-16 06:00:00 11.3 8 Sudeste 18 Sudeste 0 -- -- --
2019-02-16 05:00:00 11.2 15 Sudeste 25 Sudeste 0 -- -- --
2019-02-16 04:00:00 10.8 13 Sudeste 18 Este 0 -- -- --
2019-02-16 03:00:00 10.6 14 Este 21 Este 0 -- -- --
2019-02-16 02:00:00 11 17 Sudeste 21 Este 0 -- -- --
2019-02-16 01:00:00 10.2 14 Sudeste 17 Este 0 -- -- --
2019-02-16 00:00:00 11.3 8 Sudeste 11 Sudeste 0 -- -- --
2019-02-15 23:00:00 13.1 5 Sur 12 Sur 0 -- -- --
2019-02-15 22:00:00 12.8 12 Sur 19 Sudoeste 0 -- -- --
2019-02-15 21:00:00 12.8 14 Sur 19 Sur 0 -- -- --
2019-02-15 20:00:00 13.1 15 Sur 24 Sur 0 -- -- --
2019-02-15 19:00:00 13.9 18 Sur 22 Sur 0 -- -- --
2019-02-15 18:00:00 15.2 16 Sur 24 Sur 0 -- -- --
2019-02-15 17:00:00 16 17 Sur 30 Sur 0 -- -- --
2019-02-15 16:00:00 16.5 23 Sur 40 Sur 0 -- -- --
2019-02-15 15:00:00 16.7 30 Sur 42 Sur 0 -- -- --
2019-02-15 14:00:00 17.2 33 Sur 45 Sur 0 -- -- --
2019-02-15 13:00:00 16.8 36 Sur 52 Sur 0 -- -- --
2019-02-15 12:00:00 16.8 37 Sur 53 Sur 0 -- -- --
2019-02-15 11:00:00 16.2 37 Sur 56 Sur 0 -- -- --
2019-02-15 10:00:00 16 33 Sur 47 Sur 0 -- -- --
2019-02-15 09:00:00 15.7 30 Sur 48 Sur 0 -- -- --
2019-02-15 08:00:00 15.7 27 Sur 45 Sur 0 -- -- --
2019-02-15 07:00:00 15.5 30 Sur 42 Sur 0 -- -- --
2019-02-15 06:00:00 15.6 22 Sur 37 Sur 0 -- -- --
2019-02-15 05:00:00 15.7 23 Sur 34 Sur 0 -- -- --
2019-02-15 04:00:00 15.6 23 Sur 33 Sur 0 -- -- --
2019-02-15 03:00:00 15.6 23 Sur 34 Sur 0 -- -- --
2019-02-15 02:00:00 15.3 15 Sur 26 Sur 0 -- -- --
2019-02-15 01:00:00 15.2 20 Sur 30 Sur 0 -- -- --
2019-02-15 00:00:00 14.9 21 Sur 29 Sur 0 -- -- --
2019-02-14 23:00:00 14.4 19 Sur 26 Sudeste 0 -- -- --
2019-02-14 22:00:00 13.6 15 Sudeste 26 Sudeste 0 -- -- --
2019-02-14 21:00:00 13.6 11 Sudeste 24 Sur 0 -- -- --
2019-02-14 20:00:00 14 12 Sudeste 22 Sur 0 -- -- --
2019-02-14 19:00:00 14 16 Sur 32 Sur 0 -- -- --
2019-02-14 18:00:00 17 19 Sur 29 Sur 0 -- -- --
2019-02-14 17:00:00 18.2 23 Sur 37 Sur 0 -- -- --
2019-02-14 16:00:00 18.4 24 Sur 36 Sur 0 -- -- --
2019-02-14 15:00:00 18.9 22 Sur 48 Sur 0 -- -- --
2019-02-14 14:00:00 18 35 Sur 52 Sur 0 -- -- --
2019-02-14 13:00:00 18.2 32 Sur 47 Sur 0 -- -- --
2019-02-14 12:00:00 17.5 17 Sur 26 Sur 0 -- -- --
2019-02-14 11:00:00 14.7 15 Sudeste 29 Sudeste 0 -- -- --
2019-02-14 10:00:00 12.2 21 Sudeste 30 Sudeste 0 -- -- --
2019-02-14 09:00:00 10 23 Sudeste 30 Sudeste 0 -- -- --
2019-02-14 08:00:00 10.2 23 Sudeste 30 Sudeste 0 -- -- --
2019-02-14 07:00:00 10.8 21 Sudeste 26 Sudeste 0 -- -- --
2019-02-14 06:00:00 11 17 Sudeste 24 Sudeste 0 -- -- --
2019-02-14 05:00:00 11.1 16 Sudeste 22 Sudeste 0 -- -- --
2019-02-14 04:00:00 11.3 15 Sudeste 20 Sudeste 0 -- -- --
2019-02-14 03:00:00 9.6 9 Sudeste 18 Sudeste 0 -- -- --
2019-02-14 02:00:00 10.3 13 Sudeste 16 Sudeste 0 -- -- --
2019-02-14 01:00:00 10 13 Sudeste 16 Sudeste 0 -- -- --
2019-02-14 00:00:00 11.1 11 Sudeste 14 Sudeste 0 -- -- --
2019-02-13 23:00:00 11.5 12 Sur 14 Sudeste 0 -- -- --
2019-02-13 22:00:00 11.2 10 Sudeste 13 Sudeste -- -- -- 0
2019-02-13 21:00:00 11.3 5 Este 14 Sudeste -- -- -- 0
2019-02-13 20:00:00 11.1 9 Sur 16 Sur -- -- -- 0
2019-02-13 19:00:00 13.4 12 Sur 17 Sur -- -- -- 0
2019-02-13 18:00:00 15.7 8 Sudoeste 19 Sur -- -- -- 0
2019-02-13 17:00:00 17.2 15 Sur 23 Sur -- -- -- 0
2019-02-13 16:00:00 17.5 16 Sur 24 Sur -- -- -- 0
2019-02-13 15:00:00 17.9 17 Sur 24 Sur -- -- -- 0
2019-02-13 14:00:00 17.5 17 Sur 25 Sur -- -- -- 0
2019-02-13 13:00:00 16.9 14 Sur 21 Sur -- -- -- 44
2019-02-13 12:00:00 15.9 11 Sur 22 Sur -- -- -- 47
2019-02-13 11:00:00 13.1 16 Sur 24 Sur -- -- -- 0
2019-02-13 10:00:00 10.7 17 Sudeste 23 Sur -- -- -- 0
2019-02-13 09:00:00 10 18 Sur 22 Sur -- -- -- 0
2019-02-13 08:00:00 9.3 12 Sur 14 Sur -- -- -- 0
2019-02-13 07:00:00 9.2 12 Sur 15 Sur -- -- -- 0
2019-02-13 06:00:00 8.9 9 Sur 14 Sudeste -- -- -- 0
2019-02-13 05:00:00 9.5 10 Sur 13 Sudeste -- -- -- 0
2019-02-13 04:00:00 7.6 13 Sudeste 16 Sudeste -- -- -- 0
2019-02-13 03:00:00 8.6 8 Sudeste 10 Sudeste -- -- -- 0
2019-02-13 02:00:00 9 3 Sudeste 7 Sudeste -- -- -- 0
2019-02-13 01:00:00 9.1 4 Sudeste 6 Sudeste -- -- -- 0
2019-02-13 00:00:00 8.8 5 Sudeste 10 Sudeste -- -- -- 0
2019-02-12 23:00:00 8.9 8 Sudeste 15 Sudeste -- -- -- 0
2019-02-12 22:00:00 9.1 12 Sudeste 14 Sudeste -- -- -- 0
2019-02-12 21:00:00 9.8 6 Sudeste 7 Sudeste -- -- -- 0
2019-02-12 20:00:00 10.5 3 Nordeste 6 Este -- -- -- 0
2019-02-12 19:00:00 11.8 3 Nordeste 4 Nordeste -- -- -- 0
2019-02-12 18:00:00 13.2 3 Norte 7 Norte -- -- -- 0
2019-02-12 17:00:00 13.5 4 Norte 9 Noroeste -- -- -- 0
2019-02-12 16:00:00 14 5 Oeste 12 Oeste -- -- -- 0
2019-02-12 15:00:00 14.2 5 Oeste 11 Oeste -- -- -- 0
2019-02-12 14:00:00 14.4 8 Oeste 13 Sudoeste -- -- -- 0
2019-02-12 13:00:00 13.9 7 Sudoeste 13 Sudoeste -- -- -- 0
2019-02-12 12:00:00 13.9 0 Calma 8 Sudeste -- -- -- 0
2019-02-12 11:00:00 11.1 4 Sudeste 12 Sudeste -- -- -- 0
2019-02-12 10:00:00 7.8 11 Sudeste 13 Sudeste -- -- -- 0
2019-02-12 09:00:00 7.3 10 Sudeste 14 Sudeste -- -- -- 0
2019-02-12 08:00:00 9 5 Sur 10 Sudeste -- -- -- 0
2019-02-12 07:00:00 7.7 6 Sur 12 Sur -- -- -- 0
2019-02-12 06:00:00 7.3 10 Sudeste 16 Sudeste -- -- -- 0
2019-02-12 05:00:00 7.3 12 Sudeste 17 Sudeste -- -- -- 0
2019-02-12 04:00:00 7.3 9 Este 11 Sudeste -- -- -- 0
2019-02-12 03:00:00 6.9 9 Sudeste 15 Sudeste -- -- -- 0
2019-02-12 02:00:00 7.3 13 Sudeste 17 Sudeste -- -- -- 0
2019-02-12 01:00:00 7.4 14 Sudeste 24 Este -- -- -- 0
2019-02-12 00:00:00 7.7 13 Este 24 Este -- -- -- 0
2019-02-11 23:00:00 8.3 11 Nordeste 24 Este -- -- -- 0
2019-02-11 22:00:00 8.9 14 Nordeste 27 Este -- -- -- 0
2019-02-11 21:00:00 9.2 15 Nordeste 29 Nordeste -- -- -- 0
2019-02-11 20:00:00 9.7 17 Nordeste 32 Nordeste -- -- -- 0
2019-02-11 19:00:00 10.1 26 Nordeste 38 Nordeste -- -- -- 0
2019-02-11 18:00:00 10.6 31 Nordeste 42 Nordeste -- -- -- 68
2019-02-11 17:00:00 10.9 33 Nordeste 39 Nordeste -- -- -- 65
2019-02-11 16:00:00 11.1 32 Nordeste 37 Nordeste -- -- -- 64
2019-02-11 15:00:00 11.6 26 Nordeste 31 Nordeste -- -- -- 64
2019-02-11 14:00:00 11.9 22 Nordeste 27 Nordeste -- -- -- 62
2019-02-11 13:00:00 11.9 16 Nordeste 23 Nordeste -- -- -- 61
2019-02-11 12:00:00 11.9 9 Nordeste 15 Nordeste -- -- -- 62
2019-02-11 11:00:00 10.5 10 Este 12 Este -- -- -- 0
2019-02-11 10:00:00 7.7 10 Sudeste 14 Este -- -- -- 0
2019-02-11 09:00:00 6.6 13 Este 16 Este -- -- -- 0
2019-02-11 08:00:00 6.3 14 Este 16 Este -- -- -- 0
2019-02-11 07:00:00 7.1 12 Este 14 Este -- -- -- 0
2019-02-11 06:00:00 7.5 9 Este 17 Norte -- -- -- 0
2019-02-11 05:00:00 8.1 9 Nordeste 17 Nordeste -- -- -- 0
2019-02-11 04:00:00 8.6 6 Este 14 Norte -- -- -- 0
2019-02-11 03:00:00 9 10 Norte 15 Norte -- -- -- 0
2019-02-11 02:00:00 9.4 9 Norte 15 Norte -- -- -- 0
2019-02-11 01:00:00 9.3 9 Noroeste 17 Norte -- -- -- 0
2019-02-11 00:00:00 9.2 0 Calma 14 Norte -- -- -- 0
2019-02-10 23:00:00 9.4 12 Norte 25 Norte -- -- -- 0
2019-02-10 22:00:00 9 8 Noroeste 19 Norte -- -- -- 0
2019-02-10 21:00:00 9.2 11 Noroeste 17 Noroeste -- -- -- 0
2019-02-10 20:00:00 8.6 8 Noroeste 20 Noroeste -- -- -- 0
2019-02-10 19:00:00 9.2 11 Noroeste 18 Noroeste -- -- -- 0
2019-02-10 18:00:00 10.6 12 Noroeste 19 Noroeste -- -- -- 0
2019-02-10 17:00:00 11.7 10 Noroeste 18 Noroeste -- -- -- 0
2019-02-10 16:00:00 11.7 13 Noroeste 22 Noroeste -- -- -- 0
2019-02-10 15:00:00 11.5 15 Noroeste 24 Noroeste -- -- -- 0
2019-02-10 14:00:00 12.2 17 Noroeste 26 Noroeste -- -- -- 0
2019-02-10 13:00:00 11.7 14 Noroeste 21 Noroeste -- -- -- 0
2019-02-10 12:00:00 11.4 14 Noroeste 23 Noroeste -- -- -- 0
2019-02-10 11:00:00 10.1 16 Noroeste 29 Noroeste -- -- -- 0
2019-02-10 10:00:00 9.9 21 Noroeste 33 Noroeste -- -- -- 0
2019-02-10 09:00:00 9.8 18 Noroeste 31 Noroeste -- -- -- 0
2019-02-10 08:00:00 9.4 20 Noroeste 33 Noroeste -- -- -- 0
2019-02-10 07:00:00 9 23 Noroeste 40 Noroeste -- -- -- 0
2019-02-10 06:00:00 9.8 33 Noroeste 71 Sudoeste -- -- -- 0
2019-02-10 05:00:00 12.6 58 Sudoeste 89 Sudoeste -- -- -- 0
2019-02-10 04:00:00 12.6 59 Sudoeste 93 Sur -- -- -- 0
2019-02-10 03:00:00 12.7 65 Sudoeste 95 Sur -- -- -- 0
2019-02-10 02:00:00 12.7 68 Sudoeste 91 Sur -- -- -- 0
2019-02-10 01:00:00 12.8 62 Sudoeste 88 Sudoeste -- -- -- 0
2019-02-10 00:00:00 12.7 62 Sudoeste 87 Sudoeste -- -- -- 0
2019-02-09 23:00:00 12.6 59 Sudoeste 80 Sur -- -- -- 0
2019-02-09 22:00:00 12.7 55 Sudoeste 79 Sudoeste -- -- -- 0
2019-02-09 21:00:00 12.6 57 Sudoeste 79 Sudoeste -- -- -- 0
2019-02-09 20:00:00 12.6 61 Sur 82 Sudoeste -- -- -- 0
2019-02-09 19:00:00 12.2 57 Sudoeste 86 Sur -- -- -- 0
2019-02-09 18:00:00 12.1 53 Sudoeste 88 Sudoeste -- -- -- 0
2019-02-09 17:00:00 11.7 54 Sudoeste 80 Sudoeste -- -- -- 0
2019-02-09 16:00:00 12.3 53 Sur 73 Sur -- -- -- 0
2019-02-09 15:00:00 12.5 46 Sudoeste 72 Sudoeste -- -- -- 0
2019-02-09 14:00:00 12 44 Sudoeste 80 Sudoeste -- -- -- 0
2019-02-09 13:00:00 12.8 45 Sur 63 Sur -- -- -- 92
2019-02-09 12:00:00 12.4 40 Sur 61 Sur -- -- -- 0
2019-02-09 11:00:00 12 45 Sur 88 Sudoeste -- -- -- 0
2019-02-09 10:00:00 11.7 42 Sur 58 Sudoeste -- -- -- 0
2019-02-09 09:00:00 11.8 40 Sur 53 Sur -- -- -- 0
2019-02-09 08:00:00 11.7 36 Sudoeste 53 Sur -- -- -- 0
2019-02-09 07:00:00 11.6 40 Sudoeste 57 Sudoeste -- -- -- 0
2019-02-09 06:00:00 11.7 39 Sudoeste 55 Sudoeste -- -- -- 0
2019-02-09 05:00:00 11.7 40 Sudoeste 54 Sudoeste -- -- -- 0
2019-02-09 04:00:00 11.3 34 Sudoeste 56 Sudoeste -- -- -- 0
2019-02-09 03:00:00 11.8 38 Sudoeste 55 Sudoeste -- -- -- 0
2019-02-09 02:00:00 11.8 39 Sudoeste 53 Sudoeste -- -- -- 0
2019-02-09 01:00:00 11.8 38 Sudoeste 52 Sudoeste -- -- -- 0
2019-02-09 00:00:00 11.6 37 Sudoeste 54 Sudoeste -- -- -- 0
2019-02-08 23:00:00 11.5 41 Sudoeste 59 Sudoeste -- -- -- 0
2019-02-08 22:00:00 11.6 39 Sudoeste 53 Sudoeste -- -- -- 0
2019-02-08 21:00:00 11.8 41 Sudoeste 53 Sudoeste -- -- -- 0
2019-02-08 20:00:00 11.9 40 Sudoeste 57 Sudoeste -- -- -- 0
2019-02-08 19:00:00 11.8 42 Sudoeste 58 Sudoeste -- -- -- 0
2019-02-08 18:00:00 12.1 42 Sudoeste 57 Sudoeste -- -- -- 0
2019-02-08 17:00:00 12.3 44 Sudoeste 66 Sudoeste -- -- -- 0
2019-02-08 16:00:00 12.2 45 Sudoeste 64 Sudoeste -- -- -- 0
2019-02-08 15:00:00 12.2 50 Sudoeste 66 Sudoeste -- -- -- 0
2019-02-08 14:00:00 11.4 45 Sudoeste 76 Sudoeste -- -- -- 0
2019-02-08 13:00:00 11.3 47 Sudoeste 71 Sudoeste -- -- -- 0
2019-02-08 12:00:00 11.4 41 Sur 59 Sur -- -- -- 0
2019-02-08 11:00:00 11.7 40 Sur 56 Sur -- -- -- 0
2019-02-08 10:00:00 11.2 40 Sur 55 Sudoeste -- -- -- 0
2019-02-08 09:00:00 10.6 39 Sur 57 Sur -- -- -- 0
2019-02-08 08:00:00 10.6 37 Sur 49 Sur -- -- -- 0
2019-02-08 07:00:00 10.3 30 Sur 43 Sudoeste -- -- -- 0
2019-02-08 06:00:00 10.5 34 Sur 51 Sur -- -- -- 0
2019-02-08 05:00:00 10.4 33 Sudoeste 53 Sudoeste -- -- -- 0
2019-02-08 04:00:00 10.6 37 Sudoeste 49 Sudoeste -- -- -- 0
2019-02-08 03:00:00 10.5 32 Sudoeste 44 Sudoeste -- -- -- 0
2019-02-08 02:00:00 10.5 32 Sudoeste 44 Sudoeste -- -- -- 0
2019-02-08 01:00:00 10.5 32 Sudoeste 39 Sudoeste -- -- -- 0
2019-02-08 00:00:00 10.1 25 Sudoeste 37 Sudoeste -- -- -- 0
2019-02-07 23:00:00 10 27 Sudoeste 33 Sudoeste -- -- -- 0
2019-02-07 22:00:00 9.7 23 Sudoeste 31 Sudoeste -- -- -- 0
2019-02-07 21:00:00 9.9 25 Sudoeste 32 Sudoeste -- -- -- 0
2019-02-07 20:00:00 10.1 16 Sudoeste 27 Sudoeste -- -- -- 0
2019-02-07 19:00:00 10 19 Sudoeste 26 Sudoeste -- -- -- 0
2019-02-07 18:00:00 11 19 Sudoeste 27 Sudoeste -- -- -- 0
2019-02-07 17:00:00 12.1 20 Sudoeste 27 Sudoeste -- -- -- 0
2019-02-07 16:00:00 12.5 21 Sudoeste 28 Sudoeste -- -- -- 0
2019-02-07 15:00:00 12.9 18 Sudoeste 22 Sudoeste -- -- -- 0
2019-02-07 14:00:00 13 14 Sudoeste 19 Sudoeste -- -- -- 0
2019-02-07 13:00:00 12.6 10 Oeste 14 Sudoeste -- -- -- 0
2019-02-07 12:00:00 12.2 6 Sudoeste 13 Sudoeste -- -- -- 0
2019-02-07 11:00:00 11.1 5 Sudoeste 12 Noroeste -- -- -- 0
2019-02-07 10:00:00 9.5 6 Noroeste 17 Noroeste -- -- -- 0
2019-02-07 09:00:00 8.7 10 Oeste 18 Oeste -- -- -- 0
2019-02-07 08:00:00 8.2 12 Oeste 15 Oeste -- -- -- 0
2019-02-07 07:00:00 8.4 9 Noroeste 20 Noroeste -- -- -- 0
2019-02-07 06:00:00 9.1 14 Noroeste 21 Noroeste -- -- -- 0
2019-02-07 05:00:00 9.9 13 Noroeste 24 Oeste -- -- -- 0
2019-02-07 04:00:00 10.7 20 Oeste 32 Oeste -- -- -- 0
2019-02-07 03:00:00 10.8 25 Sudoeste 38 Oeste -- -- -- 0
2019-02-07 02:00:00 11 22 Sudoeste 30 Sudoeste -- -- -- 0
2019-02-07 01:00:00 10.6 22 Sudoeste 30 Sudoeste -- -- -- 0
2019-02-07 00:00:00 10 20 Sudoeste 26 Sudoeste -- -- -- 0
2019-02-06 23:00:00 9.7 19 Sudoeste 24 Sudoeste -- -- -- 0
2019-02-06 22:00:00 10.1 17 Sudoeste 29 Oeste -- -- -- 0
2019-02-06 21:00:00 9.9 21 Oeste 51 Sudoeste -- -- -- 0
2019-02-06 20:00:00 11.4 37 Sudoeste 53 Sudoeste -- -- -- 0
2019-02-06 19:00:00 11.4 33 Sudoeste 49 Sudoeste -- -- -- 0
2019-02-06 18:00:00 11.3 33 Sudoeste 51 Sudoeste -- -- -- 0
2019-02-06 17:00:00 11.4 39 Sudoeste 57 Sudoeste -- -- -- 0
2019-02-06 16:00:00 12.5 30 Sudoeste 52 Sur -- -- -- 0
2019-02-06 15:00:00 12.5 34 Sudoeste 51 Sudoeste -- -- -- 0
2019-02-06 14:00:00 12 35 Sudoeste 48 Sudoeste -- -- -- 0
2019-02-06 13:00:00 12.5 33 Sudoeste 48 Sudoeste -- -- -- 0
2019-02-06 12:00:00 11.8 34 Sudoeste 49 Sur -- -- -- 0
2019-02-06 11:00:00 11.9 30 Sudoeste 42 Sudoeste -- -- -- 0
2019-02-06 10:00:00 11.7 25 Sudoeste 62 Sur -- -- -- 0
2019-02-06 09:00:00 11.5 26 Sudoeste 35 Sudoeste -- -- -- 0
2019-02-06 08:00:00 11.6 27 Sudoeste 37 Sudoeste -- -- -- 0
2019-02-06 07:00:00 11.2 23 Sudoeste 33 Sudoeste -- -- -- 0
2019-02-06 06:00:00 11.5 22 Sudoeste 28 Sudoeste -- -- -- 0
2019-02-06 05:00:00 11.3 15 Sur 26 Sudoeste -- -- -- 0
2019-02-06 04:00:00 11.3 17 Sudoeste 24 Sur -- -- -- 0
2019-02-06 03:00:00 11.1 17 Sur 23 Sur -- -- -- 0
2019-02-06 02:00:00 11.2 19 Sur 25 Sur -- -- -- 0
2019-02-06 01:00:00 11.3 19 Sur 25 Sur -- -- -- 0
2019-02-06 00:00:00 11.5 17 Sur 23 Sur -- -- -- 0
2019-02-05 23:00:00 11.6 16 Sur 25 Sur -- -- -- 0
2019-02-05 22:00:00 11.6 19 Sur 28 Sudoeste -- -- -- 0
2019-02-05 21:00:00 11.6 21 Sudoeste 39 Sudoeste -- -- -- 0
2019-02-05 20:00:00 11.7 27 Sudoeste 34 Sudoeste -- -- -- 0
2019-02-05 19:00:00 12.1 27 Sudoeste 40 Sudoeste -- -- -- 0
2019-02-05 18:00:00 12.5 28 Sudoeste 35 Sudoeste -- -- -- 0
2019-02-05 17:00:00 13 27 Sudoeste 38 Sur -- -- -- 0
2019-02-05 16:00:00 14.4 29 Sudoeste 40 Sudoeste -- -- -- 0
2019-02-05 15:00:00 14.7 28 Sudoeste 40 Sudoeste -- -- -- 0
2019-02-05 14:00:00 14.6 30 Sudoeste 39 Sudoeste -- -- -- 0
2019-02-05 13:00:00 13.8 25 Sur 36 Sur -- -- -- 0
2019-02-05 12:00:00 12.3 24 Sudoeste 35 Sudoeste -- -- -- 0
2019-02-05 11:00:00 11.7 29 Sudoeste 37 Sudoeste -- -- -- 0
2019-02-05 10:00:00 11.3 25 Sudoeste 40 Sur -- -- -- 0
2019-02-05 09:00:00 11.4 21 Sur 30 Sur -- -- -- 0
2019-02-05 08:00:00 11.1 21 Sur 37 Sudoeste -- -- -- 0
2019-02-05 07:00:00 11.9 26 Sudoeste 34 Sudoeste -- -- -- 0
2019-02-05 06:00:00 11.9 27 Sudoeste 35 Sudoeste -- -- -- 0
2019-02-05 05:00:00 11.9 25 Sudoeste 33 Sudoeste -- -- -- 0
2019-02-05 04:00:00 11.6 22 Sur 31 Sur -- -- -- 0
2019-02-05 03:00:00 11.4 19 Sur 29 Sur -- -- -- 0
2019-02-05 02:00:00 11.5 21 Sur 32 Sudoeste -- -- -- 0
2019-02-05 01:00:00 11.4 23 Sur 30 Sur -- -- -- 0
2019-02-05 00:00:00 11.3 20 Sur 28 Sur -- -- -- 0
2019-02-04 23:00:00 11.1 21 Sur 35 Sudoeste -- -- -- 0
2019-02-04 22:00:00 11.7 27 Sudoeste 38 Sudoeste -- -- -- 0
2019-02-04 21:00:00 11.6 29 Sudoeste 40 Sudoeste -- -- -- 0
2019-02-04 20:00:00 11.4 30 Sudoeste 44 Sur -- -- -- 0
2019-02-04 19:00:00 11.2 31 Sur 45 Sur -- -- -- 0
2019-02-04 18:00:00 11.1 27 Sur 46 Sur -- -- -- 0
2019-02-04 17:00:00 11.1 32 Sur 43 Sur -- -- -- 0
2019-02-04 16:00:00 10.9 32 Sur 47 Sur -- -- -- 0
2019-02-04 15:00:00 10.7 31 Sur 41 Sur -- -- -- 0
2019-02-04 14:00:00 10.3 32 Sur 43 Sur -- -- -- 0
2019-02-04 13:00:00 9.8 25 Sur 41 Sur -- -- -- 0
2019-02-04 12:00:00 9.9 27 Sur 42 Sur -- -- -- 0
2019-02-04 11:00:00 9.5 27 Sur 39 Sur -- -- -- 0
2019-02-04 10:00:00 9.1 31 Sur 45 Sur -- -- -- 0
2019-02-04 09:00:00 8.7 27 Sur 44 Sur -- -- -- 0
2019-02-04 08:00:00 8.6 32 Sur 48 Sur -- -- -- 0
2019-02-04 07:00:00 8.5 31 Sur 45 Sur -- -- -- 0
2019-02-04 06:00:00 8.8 28 Sur 38 Sur -- -- -- 0
2019-02-04 05:00:00 9.1 28 Sur 36 Sur -- -- -- 0
2019-02-04 04:00:00 9.5 26 Sur 43 Sur -- -- -- 0
2019-02-04 03:00:00 9.9 27 Sur 41 Sur -- -- -- 0
2019-02-04 02:00:00 10 28 Sur 37 Sur -- -- -- 0
2019-02-04 01:00:00 9.3 25 Sur 39 Sur -- -- -- 0
2019-02-04 00:00:00 8.9 29 Sur 38 Sur -- -- -- 0
2019-02-03 23:00:00 8.5 24 Sur 33 Sur -- -- -- 0
2019-02-03 22:00:00 8.2 22 Sur 29 Sur -- -- -- 0
2019-02-03 21:00:00 8.1 22 Sur 29 Sur -- -- -- 0
2019-02-03 20:00:00 8.4 16 Sur 21 Sur -- -- -- 0
2019-02-03 19:00:00 8.8 16 Sur 23 Sur -- -- -- 0
2019-02-03 18:00:00 9.9 18 Sur 28 Sudoeste -- -- -- 0
2019-02-03 17:00:00 12 23 Sudoeste 30 Sudoeste -- -- -- 0
2019-02-03 16:00:00 11.9 21 Sudoeste 26 Sudoeste -- -- -- 0
2019-02-03 15:00:00 11.7 14 Sur 22 Sur -- -- -- 0
2019-02-03 14:00:00 12.5 12 Sudoeste 20 Sur -- -- -- 0
2019-02-03 13:00:00 11.7 11 Sur 18 Sur -- -- -- 0
2019-02-03 12:00:00 10.1 12 Sur 19 Sur -- -- -- 0
2019-02-03 11:00:00 8.5 11 Sudeste 18 Sur -- -- -- 0
2019-02-03 10:00:00 6.7 11 Sudeste 18 Sudeste -- -- -- 0
2019-02-03 09:00:00 5.8 13 Sudeste 20 Este -- -- -- 0
2019-02-03 08:00:00 5.6 13 Sudeste 18 Sudeste -- -- -- 0
2019-02-03 07:00:00 5.1 12 Sudeste 15 Sudeste -- -- -- 0
2019-02-03 06:00:00 5.5 12 Sudeste 20 Sudeste -- -- -- 0
2019-02-03 05:00:00 4.8 12 Sudeste 16 Este -- -- -- 0
2019-02-03 04:00:00 5.2 12 Sudeste 16 Este -- -- -- 0
2019-02-03 03:00:00 5.7 13 Este 18 Este -- -- -- 0
2019-02-03 02:00:00 8.1 13 Norte 22 Nordeste -- -- -- 0
2019-02-03 01:00:00 8.1 16 Nordeste 35 Nordeste -- -- -- 0
2019-02-03 00:00:00 8.3 32 Nordeste 37 Nordeste -- -- -- 0
2019-02-02 23:00:00 8.7 28 Norte 40 Nordeste -- -- -- 0
2019-02-02 22:00:00 8.7 31 Norte 40 Nordeste -- -- -- 0
2019-02-02 21:00:00 7.5 21 Norte 54 Norte -- -- -- 0
2019-02-02 20:00:00 7.6 22 Norte 54 Norte -- -- -- 0
2019-02-02 19:00:00 9 26 Norte 36 Noroeste -- -- -- 0
2019-02-02 18:00:00 9.4 26 Norte 39 Norte -- -- -- 0
2019-02-02 17:00:00 9.6 27 Norte 43 Norte -- -- -- 0
2019-02-02 16:00:00 10.4 18 Noroeste 31 Noroeste -- -- -- 0
2019-02-02 15:00:00 10.2 23 Norte 52 Nordeste -- -- -- 0
2019-02-02 14:00:00 10.4 30 Norte 54 Norte -- -- -- 0
2019-02-02 13:00:00 10.3 26 Norte 42 Norte -- -- -- 0
2019-02-02 12:00:00 9.6 30 Norte 46 Norte -- -- -- 0
2019-02-02 11:00:00 8.4 27 Noroeste 46 Norte -- -- -- 0
2019-02-02 10:00:00 8.2 29 Norte 46 Norte -- -- -- 0
2019-02-02 09:00:00 8.3 34 Norte 49 Norte -- -- -- 0
2019-02-02 08:00:00 7.9 29 Norte 57 Norte -- -- -- 0
2019-02-02 07:00:00 8.3 39 Norte 56 Norte -- -- -- 0
2019-02-02 06:00:00 8.3 42 Norte 61 Norte -- -- -- 0
2019-02-02 05:00:00 7.8 35 Norte 70 Norte -- -- -- 0
2019-02-02 04:00:00 8.3 43 Norte 59 Norte -- -- -- 0
2019-02-02 03:00:00 7.5 39 Norte 67 Norte -- -- -- 0
2019-02-02 02:00:00 7.7 48 Norte 83 Norte -- -- -- 0
2019-02-02 01:00:00 7.8 47 Norte 80 Norte -- -- -- 0
2019-02-02 00:00:00 8 46 Norte 75 Norte -- -- -- 0
2019-02-01 23:00:00 6.9 41 Norte 88 Norte -- -- -- 0
2019-02-01 22:00:00 7.7 53 Norte 79 Norte -- -- -- 0
2019-02-01 21:00:00 7.9 53 Norte 78 Norte -- -- -- 0
2019-02-01 20:00:00 8.9 49 Norte 80 Noroeste -- -- -- 0
2019-02-01 19:00:00 9.7 41 Noroeste 67 Norte -- -- -- 0
2019-02-01 18:00:00 9.6 48 Norte 73 Norte -- -- -- 0
2019-02-01 17:00:00 10 46 Norte 80 Noroeste -- -- -- 0
2019-02-01 16:00:00 10 45 Noroeste 76 Noroeste -- -- -- 0
2019-02-01 15:00:00 8.7 46 Noroeste 79 Noroeste -- -- -- 0
2019-02-01 14:00:00 7.9 59 Noroeste 87 Noroeste -- -- -- 0
2019-02-01 13:00:00 7.8 48 Noroeste 76 Oeste -- -- -- 0
2019-02-01 12:00:00 7.3 41 Noroeste 69 Noroeste -- -- -- 0
2019-02-01 11:00:00 6.5 41 Oeste 72 Noroeste -- -- -- 0
2019-02-01 10:00:00 6.3 37 Noroeste 75 Oeste -- -- -- 0
2019-02-01 09:00:00 -- -- -- -- -- -- -- -- --
2019-02-01 08:00:00 -- -- -- -- -- -- -- -- --
2019-02-01 07:00:00 8 44 Oeste 108 Sudoeste -- -- -- 0
2019-02-01 06:00:00 8.5 43 Sudoeste 62 Sudoeste -- -- -- 74
2019-02-01 05:00:00 6.7 43 Oeste 85 Oeste -- -- -- 84
2019-02-01 04:00:00 7.5 66 Oeste 96 Sudoeste -- -- -- 81
2019-02-01 03:00:00 8.2 69 Sudoeste 113 Sudoeste -- -- -- 86
2019-02-01 02:00:00 10.1 64 Sudoeste 84 Sudoeste -- -- -- 67
2019-02-01 01:00:00 9.5 53 Sudoeste 74 Sudoeste -- -- -- 76
2019-02-01 00:00:00 9.9 47 Sudoeste 70 Sudoeste -- -- -- 70
2019-01-31 23:00:00 9.8 45 Sudoeste 62 Sudoeste -- -- -- 76
2019-01-31 22:00:00 8.8 45 Sudoeste 85 Sudoeste -- -- -- 82
2019-01-31 21:00:00 10 47 Sudoeste 69 Oeste -- -- -- 79
2019-01-31 20:00:00 9.9 45 Sudoeste 59 Sudoeste -- -- -- 80
2019-01-31 19:00:00 10.6 36 Sudoeste 58 Oeste -- -- -- 76
2019-01-31 18:00:00 10.5 47 Oeste 61 Oeste -- -- -- 74
2019-01-31 17:00:00 10.9 45 Oeste 56 Sudoeste -- -- -- 80
2019-01-31 16:00:00 11.3 42 Sudoeste 56 Sudoeste -- -- -- 87
2019-01-31 15:00:00 11.3 41 Sudoeste 55 Sudoeste -- -- -- 96
2019-01-31 14:00:00 11.5 32 Sudoeste 45 Sudoeste -- -- -- 96
2019-01-31 13:00:00 11.1 31 Oeste 41 Oeste -- -- -- 96
2019-01-31 12:00:00 11.9 30 Oeste 66 Sudoeste -- -- -- 96
2019-01-31 11:00:00 12.6 45 Sudoeste 60 Sudoeste -- -- -- 96
2019-01-31 10:00:00 12.5 45 Sudoeste 57 Sudoeste -- -- -- 96
2019-01-31 09:00:00 12.4 42 Sudoeste 58 Sudoeste -- -- -- 96
2019-01-31 08:00:00 12.5 44 Sudoeste 55 Sudoeste -- -- -- 96
2019-01-31 07:00:00 12.4 42 Sudoeste 56 Sudoeste -- -- -- 96
2019-01-31 06:00:00 12.6 45 Sudoeste 60 Sudoeste -- -- -- 96
2019-01-31 05:00:00 12.6 46 Sudoeste 66 Sudoeste -- -- -- 96
2019-01-31 04:00:00 12.4 46 Sudoeste 60 Sudoeste -- -- -- 96
2019-01-31 03:00:00 12.4 42 Sudoeste 55 Sudoeste -- -- -- 96
2019-01-31 02:00:00 12.4 43 Sudoeste 61 Sudoeste -- -- -- 96
2019-01-31 01:00:00 12.4 42 Sudoeste 56 Sudoeste -- -- -- 96
2019-01-31 00:00:00 12.4 40 Sudoeste 56 Sudoeste -- -- -- 96
2019-01-30 23:00:00 12.5 41 Sudoeste 58 Sudoeste -- -- -- 96
2019-01-30 22:00:00 12.5 44 Sudoeste 57 Sudoeste -- -- -- 96
2019-01-30 21:00:00 12.6 42 Sudoeste 54 Oeste -- -- -- 96
2019-01-30 20:00:00 12.6 41 Sudoeste 58 Sudoeste -- -- -- 96
2019-01-30 19:00:00 12.4 36 Sudoeste 47 Sudoeste -- -- -- 96
2019-01-30 18:00:00 12.2 34 Sudoeste 49 Sudoeste -- -- -- 96
2019-01-30 17:00:00 12.3 39 Oeste 58 Oeste -- -- -- 96
2019-01-30 16:00:00 12.2 42 Sudoeste 62 Sudoeste -- -- -- 96
2019-01-30 15:00:00 12 42 Sudoeste 59 Sudoeste -- -- -- 96
2019-01-30 14:00:00 11.8 39 Sudoeste 55 Sudoeste -- -- -- 96
2019-01-30 13:00:00 10.4 37 Sur 55 Sur -- -- -- 94
2019-01-30 12:00:00 10 36 Sur 49 Sur -- -- -- 94
2019-01-30 11:00:00 9.7 33 Sur 44 Sur -- -- -- 93
2019-01-30 10:00:00 8.9 28 Sur 44 Sur -- -- -- 90
2019-01-30 09:00:00 9.1 33 Sudoeste 44 Sudoeste -- -- -- 79
2019-01-30 08:00:00 9.5 32 Sudoeste 42 Sudoeste -- -- -- 72
2019-01-30 07:00:00 9.5 28 Sudoeste 37 Sudoeste -- -- -- 64
2019-01-30 06:00:00 9.3 26 Sudoeste 33 Sudoeste -- -- -- 65
2019-01-30 05:00:00 9.1 21 Sudoeste 28 Sudoeste -- -- -- 65
2019-01-30 04:00:00 8.8 18 Oeste 26 Oeste -- -- -- 65
2019-01-30 03:00:00 9 16 Oeste 24 Oeste -- -- -- 65
2019-01-30 02:00:00 9.1 17 Oeste 24 Oeste -- -- -- 65
2019-01-30 01:00:00 8.6 11 Oeste 17 Oeste -- -- -- 65
2019-01-30 00:00:00 8.3 9 Noroeste 25 Oeste -- -- -- 67
2019-01-29 23:00:00 8.5 22 Noroeste 33 Oeste -- -- -- 70
2019-01-29 22:00:00 9.2 24 Norte 34 Norte -- -- -- 59
2019-01-29 21:00:00 9.4 21 Noroeste 33 Norte -- -- -- 62
2019-01-29 20:00:00 9.4 22 Norte 39 Noroeste -- -- -- 62
2019-01-29 19:00:00 9 25 Noroeste 39 Noroeste -- -- -- 60
2019-01-29 18:00:00 9.6 27 Norte 44 Norte -- -- -- 74
2019-01-29 17:00:00 10.2 24 Noroeste 46 Noroeste -- -- -- 68
2019-01-29 16:00:00 10.3 28 Noroeste 45 Noroeste -- -- -- 70
2019-01-29 15:00:00 10.1 19 Noroeste 46 Noroeste -- -- -- 80
2019-01-29 14:00:00 11.2 29 Noroeste 53 Noroeste -- -- -- 70
2019-01-29 13:00:00 11.2 31 Noroeste 60 Noroeste -- -- -- 80
2019-01-29 12:00:00 10.1 41 Noroeste 72 Norte -- -- -- 96
2019-01-29 11:00:00 11.8 49 Oeste 69 Oeste -- -- -- 97
2019-01-29 10:00:00 11.4 49 Sudoeste 66 Oeste -- -- -- 96
2019-01-29 09:00:00 11.4 49 Sudoeste 65 Sudoeste -- -- -- 93
2019-01-29 08:00:00 11 43 Sudoeste 58 Sudoeste -- -- -- 93
2019-01-29 07:00:00 10.9 37 Sudoeste 57 Sudoeste -- -- -- 93
2019-01-29 06:00:00 10.7 37 Sudoeste 51 Sudoeste -- -- -- 94
2019-01-29 05:00:00 10.7 36 Oeste 60 Oeste -- -- -- 94
2019-01-29 04:00:00 10.7 38 Sudoeste 48 Sudoeste -- -- -- 96
2019-01-29 03:00:00 10.3 30 Sudoeste 41 Sudoeste -- -- -- 91
2019-01-29 02:00:00 10.4 33 Sudoeste 41 Sudoeste -- -- -- 86
2019-01-29 01:00:00 10.8 24 Sudoeste 30 Sudoeste -- -- -- 77
2019-01-29 00:00:00 10.8 19 Sudoeste 30 Sudoeste -- -- -- 77
2019-01-28 23:00:00 10.6 13 Sudoeste 17 Sudoeste -- -- -- 76
2019-01-28 22:00:00 10.5 10 Oeste 14 Oeste -- -- -- 76
2019-01-28 21:00:00 10.5 10 Oeste 15 Noroeste -- -- -- 76
2019-01-28 20:00:00 10.6 12 Noroeste 21 Norte -- -- -- 74
2019-01-28 19:00:00 10.6 12 Noroeste 20 Norte -- -- -- 74
2019-01-28 18:00:00 11 13 Noroeste 20 Norte -- -- -- 74
2019-01-28 17:00:00 11.2 14 Norte 22 Norte -- -- -- 75
2019-01-28 16:00:00 11.2 18 Norte 29 Norte -- -- -- 74
2019-01-28 15:00:00 10.9 21 Norte 31 Norte -- -- -- 80
2019-01-28 14:00:00 11.5 22 Norte 31 Norte -- -- -- 77
2019-01-28 13:00:00 11.4 17 Norte 33 Norte -- -- -- 87
2019-01-28 12:00:00 11.4 22 Norte 35 Norte -- -- -- 93
2019-01-28 11:00:00 11.4 23 Norte 36 Noroeste -- -- -- 94
2019-01-28 10:00:00 11.4 20 Noroeste 33 Noroeste -- -- -- 94
2019-01-28 09:00:00 11.3 27 Noroeste 43 Noroeste -- -- -- 94
2019-01-28 08:00:00 11 24 Noroeste 46 Noroeste -- -- -- 94
2019-01-28 07:00:00 11.2 24 Oeste 37 Noroeste -- -- -- 94
2019-01-28 06:00:00 11.2 25 Noroeste 36 Noroeste -- -- -- 93
2019-01-28 05:00:00 11.1 26 Noroeste 37 Noroeste -- -- -- 93
2019-01-28 04:00:00 10.8 25 Oeste 37 Oeste -- -- -- 91
2019-01-28 03:00:00 10.9 22 Oeste 41 Oeste -- -- -- 88
2019-01-28 02:00:00 10.5 22 Oeste 36 Noroeste -- -- -- 88
2019-01-28 01:00:00 10.1 24 Noroeste 42 Noroeste -- -- -- 86
2019-01-28 00:00:00 10.3 23 Noroeste 42 Noroeste -- -- -- 81
2019-01-27 23:00:00 10.7 27 Noroeste 39 Noroeste -- -- -- 76
2019-01-27 22:00:00 10.1 18 Noroeste 37 Noroeste -- -- -- 79
2019-01-27 21:00:00 10.1 18 Noroeste 40 Oeste -- -- -- 76
2019-01-27 20:00:00 10.6 21 Noroeste 31 Noroeste -- -- -- 65
2019-01-27 19:00:00 10.4 21 Noroeste 33 Noroeste -- -- -- 64
2019-01-27 18:00:00 10.7 19 Noroeste 30 Noroeste -- -- -- 59
2019-01-27 17:00:00 11.3 17 Noroeste 30 Noroeste -- -- -- 60
2019-01-27 16:00:00 11.7 19 Norte 44 Norte -- -- -- 65
2019-01-27 15:00:00 11.9 27 Norte 41 Norte -- -- -- 64
2019-01-27 14:00:00 12 26 Norte 39 Norte -- -- -- 60
2019-01-27 13:00:00 11.8 27 Norte 49 Norte 0 -- -- 59
2019-01-27 12:00:00 11.5 32 Norte 47 Norte 0 -- -- 64
2019-01-27 11:00:00 10.9 34 Norte 47 Noroeste 0 -- -- 71
2019-01-27 10:00:00 10.2 28 Norte 42 Norte 0 -- -- 72
2019-01-27 09:00:00 9.6 20 Norte 46 Noroeste 0 -- -- 76
2019-01-27 08:00:00 9.6 33 Noroeste 51 Norte 0 -- -- 72
2019-01-27 07:00:00 9.6 23 Noroeste 42 Noroeste 0 -- -- 70
2019-01-27 06:00:00 9.4 30 Noroeste 45 Norte 0 -- -- 65
2019-01-27 05:00:00 9.9 28 Noroeste 45 Norte 0 -- -- 59
2019-01-27 04:00:00 9.5 25 Noroeste 50 Noroeste 0 -- -- 74
2019-01-27 03:00:00 9.9 25 Noroeste 46 Noroeste 0 -- -- 68
2019-01-27 02:00:00 9.4 28 Noroeste 44 Noroeste 0 -- -- 76
2019-01-27 01:00:00 9.3 30 Noroeste 46 Noroeste 0 -- -- 86
2019-01-27 00:00:00 9.8 26 Noroeste 47 Noroeste 0 -- -- 94
2019-01-26 23:00:00 10 27 Noroeste 52 Oeste 0 -- -- 94
2019-01-26 22:00:00 10.9 28 Sudoeste 38 Sudoeste 0 -- -- 94
2019-01-26 21:00:00 10.7 25 Oeste 32 Oeste 0 -- -- 93
2019-01-26 20:00:00 10 21 Sudoeste 29 Sudoeste 0 -- -- 93
2019-01-26 19:00:00 9.6 21 Oeste 31 Oeste 0 -- -- 93
2019-01-26 18:00:00 10.4 17 Sudoeste 27 Oeste 0 -- -- 83
2019-01-26 17:00:00 10.6 15 Sudoeste 23 Oeste 0 -- -- 76
2019-01-26 16:00:00 12 12 Oeste 19 Sudoeste 0 -- -- 68
2019-01-26 15:00:00 12.4 9 Oeste 15 Noroeste 0 -- -- 68
2019-01-26 14:00:00 12.4 5 Noroeste 15 Noroeste 0 -- -- 68
2019-01-26 13:00:00 12.4 5 Norte 10 Nordeste 0 -- -- 68
2019-01-26 12:00:00 11.9 8 Nordeste 17 Nordeste 0 -- -- 70
2019-01-26 11:00:00 10.6 10 Nordeste 20 Este 0 -- -- 79
2019-01-26 10:00:00 9.1 15 Nordeste 23 Nordeste 0 -- -- 81
2019-01-26 09:00:00 8.7 17 Nordeste 28 Nordeste 0 -- -- 81
2019-01-26 08:00:00 9 20 Nordeste 30 Nordeste 0 -- -- 81
2019-01-26 07:00:00 8.7 19 Nordeste 30 Este 0 -- -- 80
2019-01-26 06:00:00 8.9 18 Nordeste 30 Nordeste 0 -- -- 80
2019-01-26 05:00:00 9.1 20 Nordeste 36 Nordeste 0 -- -- 80
2019-01-26 04:00:00 9.2 21 Nordeste 37 Nordeste 0 -- -- 83
2019-01-26 03:00:00 9.3 21 Nordeste 32 Nordeste 0 -- -- 84
2019-01-26 02:00:00 9.5 23 Nordeste 39 Nordeste 0 -- -- 84
2019-01-26 01:00:00 9.6 21 Nordeste 37 Nordeste 0 -- -- 83
2019-01-26 00:00:00 9.2 19 Nordeste 29 Este 0 -- -- 86
2019-01-25 23:00:00 9.9 18 Nordeste 31 Nordeste 0 -- -- 84
2019-01-25 22:00:00 10.5 25 Nordeste 40 Nordeste 0 -- -- 79
2019-01-25 21:00:00 10.6 22 Nordeste 45 Nordeste 0 -- -- 76
2019-01-25 20:00:00 10.9 28 Nordeste 46 Nordeste 0 -- -- 70
2019-01-25 19:00:00 10.9 28 Nordeste 47 Nordeste 0 -- -- 67
2019-01-25 18:00:00 11.2 27 Nordeste 42 Nordeste 0 -- -- 70
2019-01-25 17:00:00 11.5 35 Nordeste 45 Nordeste 0 -- -- 68
2019-01-25 16:00:00 11.6 36 Nordeste 44 Nordeste 0 -- -- 65
2019-01-25 15:00:00 12 35 Nordeste 43 Nordeste 0 -- -- 67
2019-01-25 14:00:00 12.2 35 Nordeste 45 Nordeste 0 -- -- 70
2019-01-25 13:00:00 12 40 Nordeste 48 Nordeste 0 -- -- 70
2019-01-25 12:00:00 11.9 36 Nordeste 47 Nordeste 0 -- -- 76
2019-01-25 11:00:00 11.8 38 Nordeste 47 Nordeste 0 -- -- 77
2019-01-25 10:00:00 11.3 30 Nordeste 49 Nordeste 0 -- -- 65
2019-01-25 09:00:00 11 35 Nordeste 46 Nordeste 0 -- -- 65
2019-01-25 08:00:00 11.3 33 Nordeste 44 Nordeste 0 -- -- 71
2019-01-25 07:00:00 11.2 28 Nordeste 42 Nordeste 0 -- -- 79
2019-01-25 06:00:00 10.9 21 Nordeste 41 Nordeste 0 -- -- 74
2019-01-25 05:00:00 10.6 26 Nordeste 38 Nordeste 0 -- -- 92
2019-01-25 04:00:00 10.7 31 Nordeste 45 Nordeste 0 -- -- 94
2019-01-25 03:00:00 10.8 37 Nordeste 45 Nordeste 0 -- -- 96
2019-01-25 02:00:00 10.8 20 Nordeste 71 Nordeste 0 -- -- 96
2019-01-25 01:00:00 10.9 31 Nordeste 37 Nordeste 0 -- -- 96
2019-01-25 00:00:00 11 31 Nordeste 39 Nordeste 0 -- -- 96
2019-01-24 23:00:00 11.1 31 Norte 99 Nordeste 0 -- -- 96
2019-01-24 22:00:00 10.8 37 Nordeste 47 Nordeste 0 -- -- 96
2019-01-24 21:00:00 11.2 33 Nordeste 41 Norte 0 -- -- 96
2019-01-24 20:00:00 11.2 33 Nordeste 48 Nordeste 0 -- -- 96
2019-01-24 19:00:00 11.2 36 Nordeste 46 Nordeste 0 -- -- 96
2019-01-24 18:00:00 11.2 34 Nordeste 44 Nordeste 0 -- -- 96
2019-01-24 17:00:00 11.3 39 Nordeste 51 Nordeste 0 -- -- 96
2019-01-24 16:00:00 11.5 40 Nordeste 51 Nordeste 0 -- -- 96
2019-01-24 15:00:00 11.6 41 Norte 50 Norte 0 -- -- 96
2019-01-24 14:00:00 11.9 34 Norte 44 Norte 0 -- -- 96
2019-01-24 13:00:00 12.1 32 Norte 49 Norte 0 -- -- 96
2019-01-24 12:00:00 12.1 31 Norte 44 Norte 0 -- -- 96
2019-01-24 11:00:00 11.8 33 Norte 44 Norte 0 -- -- 96
2019-01-24 10:00:00 11.6 34 Norte 47 Norte 0 -- -- 96
2019-01-24 09:00:00 11.5 37 Norte 55 Norte 0 -- -- 96
2019-01-24 08:00:00 11.6 37 Norte 56 Norte 0 -- -- 96
2019-01-24 07:00:00 11.5 37 Norte 53 Norte 0 -- -- 96
2019-01-24 06:00:00 11.5 32 Norte 49 Norte 0 -- -- 96
2019-01-24 05:00:00 11.7 40 Norte 54 Norte 0 -- -- 96
2019-01-24 04:00:00 11.9 35 Norte 51 Norte 0 -- -- 96
2019-01-24 03:00:00 11.8 35 Norte 49 Norte 0 -- -- 96
2019-01-24 02:00:00 12 31 Norte 44 Norte 0 -- -- 96
2019-01-24 01:00:00 12 33 Norte 46 Norte 0 -- -- 96
2019-01-24 00:00:00 11.8 36 Norte 51 Norte 0 -- -- 96